Regional Weather Roundup
Issued by NWS

Home | Current Version | Previous Version | Text Only | Print | Product List | Glossary Off
Versions: 1 2 3 4 5 6 7 8 9 10 11 12 13 14 15 16 17 18 19 20 21 22 23 24 25 26 27 28 29 30 31 32 33 34 35 36 37 38 39 40 41 42 43 44 45 46 47 48 49 50

814
ASUS44 KJAN 281310
RWRMS

MISSISSIPPI HOURLY WEATHER ROUNDUP
NATIONAL WEATHER SERVICE JACKSON MS
800 AM CDT SAT MAR 28 2015

NOTE: "FAIR: INDICATES FEW OR NO CLOUDS BELOW 12,000 FEET WITH NO
SIGNIFICANT WEATHER AND/OR OBSTRUCTIONS TO VISIBILITY.

MSZ001>002-007>008-010>013-018>021-025>028-034>036-281400-
NORTHWEST MISSISSIPPI

CITY           SKY/WX    TMP DP  RH WIND       PRES   REMARKS
CLARKSDALE     FAIR      39  28  65 E5        30.28R
CLEVELAND      FAIR      40  33  75 E7        30.25R
GREENWOOD      MOSUNNY   38  31  76 E3        30.26R
GREENVILLE     MOSUNNY   41  35  79 E7        30.23R
OLIVE BRANCH   CLOUDY    34  25  69 CALM      30.26R
OXFORD         FAIR      32  25  74 NE3       30.27R
TUNICA         CLOUDY    37  28  70 E5        30.28R WCI  34
$$

MSZ003>006-009-014>017-022>024-029>033-037>039-281400-
NORTHEAST MISSISSIPPI

CITY           SKY/WX    TMP DP  RH WIND       PRES   REMARKS
COLUMBUS AFB   SUNNY     38  27  66 N7        30.24R WCI  32
CORINTH        FAIR      34  28  80 SW3       30.25R
GOLDN TRIANGLE MOSUNNY   37  30  75 N5        30.24R WCI  34
STARKVILLE     FAIR      36  34  93 CALM      30.25R
TUPELO         MOSUNNY   34  26  72 N3        30.26R
$$

MSZ040-058-281400-
CENTRAL MISSISSIPPI

CITY           SKY/WX    TMP DP  RH WIND       PRES   REMARKS
JACKSON INTL   PTSUNNY   41  37  86 NE6       30.24R
JACKSON HAWKNS SUNNY     42  37  82 E5        30.24R
MERIDIAN KEY   MOSUNNY   37  35  92 CALM      30.24R
MERIDIAN NAS   NOT AVBL
RAYMOND        FAIR      39  34  81 CALM      30.23R
VICKSBURG      SUNNY     44  38  79 E6        30.23R
$$

MSZ059>079-281400-
SOUTH MISSISSIPPI

CITY           SKY/WX    TMP DP  RH WIND       PRES   REMARKS
BROOKHAVEN       N/A     39  39 100 CALM      30.24R
HATTIESBURG    SUNNY     42  38  85 CALM      30.26R
MCCOMB         SUNNY     42  38  85 CALM      30.23R
NATCHEZ        SUNNY     45  37  76 SE5       30.24R
PINE BELT      SUNNY     41  36  81 CALM      30.25R
$$

MSZ080>082-281400-
COASTAL MISSISSIPPI

CITY           SKY/WX    TMP DP  RH WIND       PRES   REMARKS
BAY ST LOUIS   SUNNY     45  34  65 NE5       30.26R
BILOXI         SUNNY     46  39  75 NE8       30.24R
PASCAGOULA     SUNNY     44  40  85 N5        30.25R
GULFPORT       SUNNY     47  38  71 NE7       30.24R
$$



USA.gov is the U.S. government's official web portal to all federal, state and local government web resources and services.